Meeker, CO

12:41 AM MST on January 20, 2018 (GMT -0700)
Meeker

Weather History for KEEO - January, 2012

Change the Weather History Date:

Monday, January 23, 2012

  Actual Average Record
Temperature  
Mean Temperature 24 °F 20 °F  
Max Temperature 37 °F 34 °F 50 °F (2005)
Min Temperature 10 °F 7 °F -7 °F (2002)
Degree Days  
Heating Degree Days 41 45  
Month to date heating degree days 911 1038  
Since 1 July heating degree days 4043 4327  
Cooling Degree Days 0 0  
Month to date cooling degree days 0  
Year to date cooling degree days 0  
Moisture  
Dew Point 14 °F    
Average Humidity 56    
Maximum Humidity 73    
Minimum Humidity 38    
Precipitation  
Precipitation T in 0.03 in 0.66 in (2009)
Month to date precipitation 0.41 0.70  
Year to date precipitation 0.41 0.70  
Sea Level Pressure  
Sea Level Pressure 30.00 in    
Wind  
Wind Speed 5 mph (SSW)    
Max Wind Speed 18 mph    
Max Gust Speed 24 mph    
Visibility 10 miles    
Events      
T = Trace of Precipitation, MM = Missing Value Source: NWS Daily Summary

Daily Weather History Graph

Daily Weather History Graph

Search for Another Location

Airport or City:

Trip Planner

Search our weather history database for the weather conditions in past years. The results will help you decide how hot, cold, wet, or windy it might be!

Date:

Astronomy

Jan. 23, 2012 Rise Set
Actual Time 7:27 AM MST 5:19 PM MST
Civil Twilight 6:58 AM MST 5:48 PM MST
Nautical Twilight 6:25 AM MST 6:21 PM MST
Astronomical Twilight 5:53 AM MST 6:53 PM MST
Moon 7:25 AM MST (1/23) 6:10 PM MST (1/23)
Length of Visible Light 10h 50m
Length of Day
9h 51m
New Moon, 0% of the Moon is Illuminated
Jan 23
New Moon
Jan 30
First Quarter
Feb 7
Full
Feb 14
Last Quarter
Feb 21
New

Hourly Weather History & Observations

Time (MST) Temp. Windchill Dew Point Humidity Pressure Visibility Wind Dir Wind Speed Gust Speed Precip Events Conditions
12:53 AM 19.9 °F - 10.9 °F 68% 30.13 in 10.0 mi Calm Calm - N/A   Overcast
1:53 AM 19.0 °F 11.1 °F 10.0 °F 68% 30.12 in 10.0 mi NE 5.8 mph - N/A   Overcast
2:53 AM 17.1 °F 10.0 °F 8.1 °F 68% 30.13 in 10.0 mi NE 4.6 mph - N/A   Clear
3:53 AM 12.0 °F 5.9 °F 3.9 °F 70% 30.13 in 10.0 mi Variable 3.5 mph - N/A   Clear
5:53 AM 10.9 °F 4.7 °F 3.9 °F 73% 30.18 in 10.0 mi NE 3.5 mph - N/A   Clear
6:53 AM 15.1 °F 9.4 °F 6.1 °F 68% 30.14 in 10.0 mi ENE 3.5 mph - N/A   Clear
7:53 AM 10.9 °F - 3.0 °F 70% 30.17 in 10.0 mi Calm Calm - N/A   Clear
9:53 AM 23.0 °F - 10.0 °F 58% 30.12 in 10.0 mi Calm Calm - N/A   Clear
10:53 AM 30.0 °F - 10.9 °F 45% 30.03 in 10.0 mi Calm Calm - N/A   Clear
11:53 AM 35.1 °F 25.2 °F 12.9 °F 40% 29.96 in 10.0 mi SSW 16.1 mph 23.0 mph N/A   Clear
12:53 PM 35.1 °F 25.5 °F 16.0 °F 46% 29.93 in 10.0 mi SSW 15.0 mph 23.0 mph N/A   Overcast
1:53 PM 37.0 °F 28.1 °F 17.1 °F 44% 29.91 in 10.0 mi SSW 15.0 mph - N/A   Overcast
2:53 PM 36.0 °F 28.5 °F 19.0 °F 50% 29.91 in 10.0 mi SSW 10.4 mph - N/A   Overcast
3:53 PM 36.0 °F 29.0 °F 18.0 °F 48% 29.92 in 10.0 mi SSW 9.2 mph - N/A   Overcast
4:53 PM 33.1 °F 27.7 °F 18.0 °F 54% 29.91 in 10.0 mi WSW 5.8 mph - N/A   Overcast
5:53 PM 33.1 °F - 17.1 °F 52% 29.92 in 10.0 mi Calm Calm - N/A   Overcast
6:53 PM 32.0 °F 27.5 °F 17.1 °F 54% 29.91 in 10.0 mi West 4.6 mph - N/A   Overcast
7:53 PM 32.0 °F 26.4 °F 19.9 °F 61% 29.92 in 10.0 mi North 5.8 mph - 0.00 in   Overcast
8:53 PM 30.9 °F 24.3 °F 19.0 °F 61% 29.91 in 10.0 mi WSW 6.9 mph - N/A   Overcast
9:53 PM 30.0 °F - 21.0 °F 69% 29.90 in 10.0 mi Calm Calm - 0.00 in   Overcast
10:53 PM 30.0 °F 24.1 °F 21.9 °F 72% 29.89 in 10.0 mi SE 5.8 mph - N/A   Overcast
11:53 PM 28.0 °F - 23.0 °F 81% 29.87 in 10.0 mi Calm Calm - N/A   Overcast